Weather History for Eagle Creek, IN

Change the Weather History Date:

Sunday, January 5, 2014

  Actual Average Record
Temperature  
Mean Temperature 22 °F 28 °F  
Max Temperature 36 °F 35 °F 57 °F (1998)
Min Temperature 7 °F 21 °F -9 °F (1999)
Degree Days  
Heating Degree Days 43 37  
Month to date heating degree days 220 185  
Since 1 July heating degree days 2474 2241  
Cooling Degree Days 0 0  
Month to date cooling degree days 0 0  
Year to date cooling degree days 0 0  
Moisture  
Dew Point 23 °F    
Average Humidity 74    
Maximum Humidity 92    
Minimum Humidity 56    
Precipitation  
Precipitation 0.96 in 0.10 in 1.59 in (2005)
Month to date precipitation 1.19 0.53  
Year to date precipitation 1.19 0.53  
Sea Level Pressure  
Sea Level Pressure 29.79 in    
Wind  
Wind Speed 10 mph (North)    
Max Wind Speed 32 mph    
Max Gust Speed 46 mph    
Visibility 2 miles    
Events Fog , Snow    
T = Trace of Precipitation, MM = Missing Value Source: NWS Daily Summary

Daily Weather History Graph

Daily Weather History Graph

Search for Another Location

Airport:

Trip Planner

Search our weather history database for the weather conditions in past years. The results will help you decide how hot, cold, wet, or windy it might be!

Date:

Astronomy

Jan. 05, 2014 Rise Set
Actual Time 8:06 AM EST 5:34 PM EST
Civil Twilight 7:36 AM EST 6:04 PM EST
Nautical Twilight 7:02 AM EST 6:38 PM EST
Astronomical Twilight 6:30 AM EST 7:11 PM EST
Moon 10:48 AM EST (1/5) 11:01 PM EST (1/5)
Length of Visible Light 10h 28m
Length of Day
9h 28m
Waxing Crescent, 24% of the Moon is Illuminated
Jan 5
Waxing Crescent
Jan 7
First Quarter
Jan 15
Full
Jan 24
Last Quarter
Jan 30
New

Hourly Weather History & Observations

Time (EST) Temp. Windchill Dew Point Humidity Pressure Visibility Wind Dir Wind Speed Gust Speed Precip Events Conditions
12:53 AM 35.1 °F - 24.1 °F 64% 30.02 in 10.0 mi Calm Calm - N/A   Overcast
1:53 AM 35.1 °F 32.2 °F 21.0 °F 57% 30.01 in 10.0 mi South 3.5 mph - N/A   Overcast
2:53 AM 36.0 °F 32.1 °F 26.1 °F 67% 30.01 in 10.0 mi Variable 4.6 mph - N/A   Overcast
3:53 AM 35.1 °F 32.2 °F 27.0 °F 72% 30.00 in 10.0 mi SW 3.5 mph - N/A   Overcast
4:34 AM 34.0 °F - 27.0 °F 75% 29.96 in 10.0 mi Calm Calm - N/A   Overcast
4:53 AM 34.0 °F - 27.0 °F 75% 29.97 in 10.0 mi Calm Calm - N/A   Overcast
5:53 AM 33.1 °F - 27.0 °F 78% 29.95 in 10.0 mi Calm Calm - N/A   Overcast
6:27 AM 33.1 °F 30.0 °F 28.0 °F 82% 29.93 in 5.0 mi South 3.5 mph - 0.00 in Snow Light Snow
6:44 AM 33.1 °F 30.0 °F 28.0 °F 82% 29.93 in 2.0 mi SSE 3.5 mph - 0.00 in Snow Light Snow
6:53 AM 33.1 °F 30.0 °F 28.9 °F 85% 29.95 in 1.8 mi SSE 3.5 mph - 0.00 in Snow Light Snow
7:19 AM 32.0 °F - 30.0 °F 92% 29.93 in 0.8 mi Calm Calm - 0.02 in Snow Light Snow
7:44 AM 32.0 °F 28.7 °F 30.9 °F 96% 29.92 in 0.8 mi ESE 3.5 mph - 0.04 in Snow Light Snow
7:53 AM 32.0 °F 27.5 °F 30.9 °F 96% 29.94 in 1.0 mi East 4.6 mph - 0.04 in Snow Light Snow
8:33 AM 32.0 °F 27.5 °F 30.9 °F 96% 29.90 in 0.8 mi East 4.6 mph - 0.03 in Snow Light Snow
8:41 AM 32.0 °F 26.4 °F 30.9 °F 96% 29.90 in 0.5 mi East 5.8 mph - 0.03 in Fog , Snow Snow
8:53 AM 32.0 °F 26.4 °F 30.9 °F 96% 29.91 in 0.5 mi East 5.8 mph - 0.04 in Fog , Snow Snow
9:53 AM 32.0 °F 25.6 °F 30.9 °F 96% 29.88 in 0.5 mi East 6.9 mph - 0.07 in Fog , Snow Snow
10:53 AM 32.0 °F 27.5 °F 30.9 °F 96% 29.85 in 0.2 mi ENE 4.6 mph - 0.11 in Fog , Snow Heavy Snow
11:53 AM 32.0 °F 27.5 °F 30.9 °F 96% 29.78 in 0.2 mi NE 4.6 mph - 0.14 in Fog , Snow Snow
12:53 PM 32.0 °F - 30.9 °F 96% 29.72 in 0.2 mi Calm Calm - 0.12 in Fog , Snow Heavy Snow
1:40 PM 32.0 °F 28.7 °F 30.9 °F 96% 29.67 in 0.2 mi NE 3.5 mph - 0.14 in Fog Fog
1:53 PM 32.0 °F 27.5 °F 30.9 °F 96% 29.68 in 0.2 mi NE 4.6 mph - 0.18 in Fog , Snow Heavy Snow
2:10 PM 32.0 °F 27.5 °F 30.9 °F 96% 29.65 in 0.2 mi NE 4.6 mph - 0.05 in Fog , Snow Heavy Snow
2:22 PM 32.0 °F 28.7 °F 30.9 °F 96% 29.66 in 0.2 mi NE 3.5 mph - 0.08 in Fog , Snow Heavy Snow
2:53 PM 32.0 °F 28.7 °F 30.9 °F 96% 29.66 in 0.2 mi NNE 3.5 mph - 0.16 in Fog , Snow Snow
3:25 PM 32.0 °F 28.7 °F 30.9 °F 96% 29.62 in 1.0 mi NNE 3.5 mph - 0.03 in Snow Light Snow
3:38 PM 32.0 °F 24.8 °F 30.0 °F 92% 29.62 in 3.0 mi NNE 8.1 mph - 0.03 in   Overcast
3:49 PM 32.0 °F 26.4 °F 30.2 °F 93% 29.61 in 1.8 mi NNE 5.8 mph - 0.03 in Snow Light Snow
3:53 PM 32.0 °F 26.4 °F 30.0 °F 92% 29.63 in 1.2 mi NNE 5.8 mph - 0.03 in Snow Light Snow
4:02 PM 32.0 °F 24.8 °F 30.0 °F 92% 29.61 in 0.5 mi North 8.1 mph - 0.01 in Fog , Snow Light Snow
4:36 PM 32.0 °F 22.1 °F 30.0 °F 92% 29.61 in 1.0 mi North 13.8 mph 18.4 mph 0.03 in   Overcast
4:53 PM 32.0 °F 23.0 °F 30.0 °F 92% 29.63 in 1.2 mi North 11.5 mph - 0.04 in   Overcast
5:02 PM 30.9 °F 19.8 °F 28.9 °F 92% 29.60 in 0.5 mi North 16.1 mph - N/A Fog Light Freezing Fog
5:51 PM 28.4 °F 16.6 °F 26.6 °F 93% 29.62 in 0.8 mi North 16.1 mph 25.3 mph 0.01 in   Overcast
5:53 PM 28.0 °F 16.5 °F 26.1 °F 92% 29.64 in 0.8 mi North 15.0 mph 23.0 mph 0.01 in Snow Light Snow
6:25 PM 26.1 °F 12.3 °F 24.1 °F 92% 29.64 in 0.5 mi North 19.6 mph 28.8 mph 0.01 in Fog , Snow Snow
6:39 PM 26.1 °F 13.6 °F 23.0 °F 88% 29.64 in 0.8 mi NNW 16.1 mph 35.7 mph 0.01 in Snow Light Snow
6:47 PM 26.6 °F 13.4 °F 23.0 °F 86% 29.64 in 1.0 mi NNW 18.4 mph 28.8 mph 0.01 in Snow Light Snow
6:53 PM 25.0 °F 10.9 °F 23.0 °F 92% 29.67 in 1.0 mi NNW 19.6 mph 28.8 mph 0.01 in Snow Light Snow
7:03 PM 25.0 °F 10.9 °F 21.9 °F 88% 29.65 in 0.8 mi NNW 19.6 mph 31.1 mph 0.00 in Snow Light Snow
7:28 PM 24.1 °F 8.7 °F 21.0 °F 88% 29.67 in 1.0 mi NNW 23.0 mph 32.2 mph 0.00 in Snow Light Snow
7:53 PM 23.0 °F 6.0 °F 19.9 °F 88% 29.71 in 1.0 mi NNW 27.6 mph 34.5 mph 0.00 in Snow Light Snow
8:00 PM 23.0 °F 6.9 °F 19.9 °F 88% 29.69 in 0.8 mi NNW 24.2 mph 34.5 mph 0.00 in Snow Light Snow
8:26 PM 23.0 °F 7.2 °F 19.9 °F 88% 29.71 in 1.0 mi NNW 23.0 mph 33.4 mph 0.01 in Snow Light Snow
8:53 PM 24.1 °F 8.3 °F 19.9 °F 84% 29.75 in 1.5 mi NW 24.2 mph 39.1 mph 0.01 in Snow Light Snow
9:05 PM 19.0 °F 0.3 °F 15.1 °F 85% 29.75 in 0.8 mi NW 28.8 mph 39.1 mph 0.00 in Snow Light Snow
9:15 PM 17.1 °F -1.4 °F 14.0 °F 88% 29.76 in 0.5 mi NW 25.3 mph 42.6 mph 0.00 in Fog , Snow Snow
9:38 PM 15.1 °F -3.7 °F 10.9 °F 84% 29.77 in 0.8 mi NW 24.2 mph 40.3 mph 0.00 in Snow Light Snow
9:46 PM 15.1 °F -4.0 °F 10.9 °F 84% 29.78 in 1.0 mi NW 25.3 mph 36.8 mph 0.00 in Snow Light Snow
9:53 PM 14.0 °F -6.2 °F 10.0 °F 84% 29.83 in 0.8 mi NW 27.6 mph 41.4 mph 0.00 in Snow Light Snow
10:04 PM 12.9 °F -6.1 °F 9.0 °F 84% 29.82 in 1.0 mi NW 23.0 mph 36.8 mph 0.00 in Snow Light Snow
10:18 PM 12.0 °F -9.2 °F 7.0 °F 80% 29.83 in 1.0 mi NW 28.8 mph 46.0 mph 0.00 in Snow Light Snow
10:39 PM 10.0 °F -10.0 °F 6.1 °F 84% 29.84 in 0.8 mi NW 23.0 mph 36.8 mph 0.00 in Snow Light Snow
10:53 PM 10.0 °F -10.8 °F 5.0 °F 80% 29.89 in 0.8 mi NW 25.3 mph 42.6 mph 0.00 in Snow Light Snow
10:57 PM 9.0 °F -11.4 °F 5.0 °F 84% 29.86 in 1.0 mi NW 23.0 mph 36.8 mph 0.00 in Snow Light Snow
11:35 PM 8.1 °F -13.4 °F 3.0 °F 80% 29.89 in 1.2 mi NW 25.3 mph 42.6 mph 0.00 in Snow Light Snow
11:50 PM 6.8 °F -14.7 °F 3.2 °F 85% 29.90 in 1.0 mi WNW 24.2 mph 32.2 mph 0.00 in Snow Light Snow
11:53 PM 7.0 °F -15.3 °F 1.9 °F 80% 29.94 in 1.2 mi NW 26.5 mph 35.7 mph 0.00 in Snow Light Snow